Location: Castelbiague
(43.0361°N, 0.9246°E)
Time: 10:14:31
(UTC+00:00)

ARIANE 5 R/B - Pass Details

Date: 17 June 2021
Orbit: 620 x 656 km, 98.1° (Epoch: 28 July)

Event Time Altitude Azimuth Distance (km) Brightness Sun altitude
Exits shadow 20:29:14 10° 124° (SE) 2,032 4.5 -8.1°
Reaches altitude 10° 20:29:15 10° 124° (SE) 2,029 4.5 -8.1°
Maximum altitude 20:32:58 27° 67° (ENE) 1,239 3.9 -8.6°
Drops below altitude 10° 20:36:44 10° 10° (N) 2,060 5.7 -9.1°
Sets 20:39:13 0° 358° (N) 2,980 6.8 -9.4°
